Location: Buckeye Ditch
(40.9104°N, 122.9517°W)
Time: 16:02:10
(UTC+00:00)

A-11 Canister half - Pass Details

Date: 23 May 2025
Orbit: 1515 x 1684 km, 47.2° (Epoch: 14 June)

Event Time Altitude Azimuth Distance (km) Brightness Sun altitude
Rises 08:45:01 0° 265° (W) 4,762 11.4 -27.9°
Reaches altitude 10° 08:48:12 10° 269° (W) 3,756 10.9 -27.7°
Maximum altitude 08:57:35 63° 350° (N) 1,688 9.3 -27.4°
Drops below altitude 10° 09:06:45 10° 71° (ENE) 3,678 11.4 -27.0°
Sets 09:09:50 0° 75° (ENE) 4,658 11.9 -26.8°
